ECMWFNIL_sfc_thetae_096.txt.gz
Theta_e
285 285 284 284 283 284 283 282 282 282 282 282 282 281 281 281 280 280 279 280 279 279 279 278 278 278 279 278 278 278 277 277 277 277 276 276 276 276 277 276 275 276
285 285 284 284 284 283 283 283 283 283 282 281 281 281 280 280 280 280 279 279 279 278 278 278 277 277 277 277 277 276 276 276 276 278 276 276 275 275 275 275 275 275
285 284 284 283 283 282 282 282 283 282 282 281 281 281 281 280 280 279 279 278 277 277 277 277 277 276 276 276 276 276 276 275 275 275 276 275 275 274 274 275 275 274
284 284 283 283 283 283 283 282 282 282 281 281 280 281 281 280 279 278 278 278 277 277 276 276 276 276 275 275 275 275 275 275 274 274 274 274 275 274 274 274 274 274
284 283 283 283 283 283 283 282 282 281 280 280 280 280 280 279 278 277 277 277 276 276 276 276 275 275 275 275 274 274 275 274 274 273 273 273 273 274 274 274 273 273
283 283 283 283 283 283 282 282 281 281 280 280 280 279 278 278 277 277 277 276 276 276 275 275 275 274 274 274 274 274 274 273 273 272 272 272 272 273 275 274 273 272
283 282 282 282 282 282 282 281 280 280 280 279 279 278 278 277 277 277 276 276 275 275 275 274 274 274 274 273 273 273 273 272 272 272 271 271 272 271 272 272 272 272
282 282 282 282 281 281 281 281 281 280 279 278 278 278 277 277 277 277 276 276 275 274 274 274 273 273 273 273 272 272 272 273 272 271 270 270 271 271 271 272 272 271
282 282 282 281 281 280 280 280 280 279 278 279 278 278 278 277 278 277 276 275 274 274 273 273 273 272 272 272 272 271 271 270 271 270 270 270 270 271 271 271 271 271
282 282 281 281 280 280 280 280 280 279 279 279 279 279 278 278 277 276 275 274 273 273 272 272 272 272 272 272 271 271 270 270 270 270 270 270 271 270 271 271 270 270
282 281 281 281 280 280 280 280 280 279 279 279 278 277 277 276 276 275 274 273 273 272 272 271 272 272 271 271 271 270 270 270 270 270 270 271 271 271 272 270 270 270
281 281 281 281 281 280 281 280 279 279 279 278 278 277 276 275 275 275 274 273 272 272 271 271 271 271 271 270 270 270 270 270 270 270 271 271 271 271 271 271 270 270
282 281 282 281 281 281 280 279 278 278 278 278 277 276 275 275 274 274 274 273 272 271 271 271 271 270 269 269 269 269 270 270 270 269 270 270 270 270 270 270 270 270
282 282 282 282 281 280 279 279 278 278 278 277 276 276 275 275 274 273 273 273 272 270 271 270 270 269 269 269 269 269 270 270 270 269 269 269 269 269 270 270 270 270
282 282 282 281 280 279 278 278 277 277 276 276 276 275 274 274 274 273 271 271 270 271 271 271 270 270 269 269 269 269 270 271 270 269 268 268 268 268 269 269 268 269
282 282 281 280 279 278 278 277 277 276 275 275 275 274 274 273 273 272 272 271 271 271 270 270 270 269 273 276 275 271 271 271 270 270 271 270 270 269 269 269 269 268
281 281 280 279 279 278 277 277 276 276 275 275 274 273 273 272 272 272 271 271 271 270 269 269 269 269 275 277 279 278 272 271 271 271 270 270 270 270 269 269 268 268
281 280 279 279 278 277 276 276 276 275 274 274 273 273 272 272 272 272 271 271 270 270 269 269 268 274 276 278 279 279 276 273 272 271 270 270 271 270 268 267 266 267
280 279 278 278 277 276 275 275 274 274 274 273 273 273 272 272 272 271 270 270 270 269 268 268 267 274 276 278 278 278 278 275 272 272 271 271 270 268 266 266 267 267
279 278 277 277 276 275 274 274 274 274 274 273 273 272 272 272 271 270 270 269 269 268 267 266 266 272 276 277 277 277 277 276 273 272 271 270 267 267 267 267 267 266
279 278 277 277 276 275 274 274 274 274 273 273 272 272 272 271 270 270 269 268 267 266 265 265 265 272 275 277 277 277 276 276 271 270 268 267 267 267 267 267 267 267
279 278 277 276 275 273 273 274 274 273 273 272 271 272 271 270 270 268 268 266 266 264 264 264 264 273 275 276 277 276 277 271 270 269 268 267 267 267 267 267 267 267
279 278 277 275 274 273 273 273 274 273 273 272 271 271 270 269 269 268 267 265 264 263 263 263 263 270 274 275 276 276 276 270 269 267 267 266 266 266 266 267 267 267
279 278 277 275 274 273 273 274 274 273 272 271 271 270 270 269 268 265 263 263 264 263 263 262 261 266 273 274 275 276 274 269 268 267 266 265 265 265 266 266 268 271
278 278 277 275 274 274 273 274 273 273 272 270 270 270 269 267 265 264 262 261 262 262 266 264 260 264 271 273 275 275 274 270 269 266 265 264 264 264 266 267 268 270
278 277 277 275 274 274 273 274 273 270 269 269 268 268 267 265 263 263 263 262 261 261 262 264 262 261 263 272 274 275 276 270 268 266 265 264 263 264 265 267 269 269

ECMWFNIL_sfc_thetae_102.txt.gz
Theta_e
283 282 282 282 281 282 281 281 281 280 280 280 280 279 279 278 279 278 278 278 278 278 278 278 277 277 278 277 277 277 276 276 275 275 275 275 275 275 275 274 274 274
282 282 282 281 282 282 281 281 281 280 280 279 279 279 279 279 278 278 278 278 278 277 277 277 277 276 276 276 276 276 276 275 275 276 275 274 274 274 274 274 274 274
281 281 281 281 281 281 281 280 280 280 280 279 279 279 279 279 278 278 278 278 277 277 277 277 276 276 276 276 276 275 275 275 274 274 274 274 274 274 273 273 273 273
281 281 281 281 281 281 281 280 280 280 279 279 279 279 279 279 278 277 277 278 277 276 276 276 276 276 275 275 275 275 274 274 274 274 274 274 274 273 273 273 273 273
281 281 281 281 281 281 281 280 280 279 279 279 279 279 279 278 277 277 277 276 276 276 276 275 275 275 275 274 274 274 274 273 273 273 273 273 273 273 273 273 272 272
281 281 281 281 281 281 280 280 280 280 279 279 279 279 278 277 277 277 277 277 276 276 275 275 275 275 275 274 273 273 273 273 272 273 272 272 272 273 273 272 272 272
281 280 280 281 280 280 281 280 280 280 279 279 279 278 277 277 277 277 277 277 276 276 276 276 275 275 274 273 273 272 272 272 272 272 272 272 272 272 272 272 272 271
281 281 280 280 280 280 280 280 279 279 279 278 278 278 277 277 278 277 277 277 277 276 276 275 275 275 274 273 273 273 272 272 272 272 271 271 271 271 271 271 271 271
281 280 280 280 280 280 280 280 279 279 279 278 278 277 277 277 277 278 277 277 276 275 276 275 275 274 274 273 273 273 272 271 271 271 271 270 270 270 270 270 270 270
280 280 280 280 280 280 280 279 279 279 278 278 278 277 277 277 278 277 276 276 275 275 275 275 274 274 273 273 273 272 271 271 270 270 270 270 270 270 270 270 269 269
280 280 279 279 280 280 279 279 279 278 278 278 277 277 277 277 277 276 276 276 275 275 275 274 274 273 273 272 272 271 271 271 270 270 270 270 270 270 271 270 269 269
280 279 280 280 280 279 279 280 279 279 278 277 278 278 278 277 277 276 276 276 275 275 274 274 273 273 273 272 271 271 271 271 271 271 270 270 270 270 270 269 269 269
280 280 280 280 280 280 280 280 279 279 278 278 278 278 278 277 277 276 276 275 275 274 274 274 273 273 272 272 271 271 271 271 271 270 270 270 269 269 269 269 269 269
280 280 280 281 281 281 280 280 279 279 278 278 278 278 278 277 276 276 276 275 274 274 274 273 273 272 272 272 272 272 271 270 270 270 270 270 269 269 269 269 269 269
281 281 281 280 280 281 280 280 279 279 279 279 278 278 278 277 277 276 275 274 274 273 273 273 272 272 272 272 272 272 271 271 271 271 270 270 269 269 268 268 268 268
280 280 280 280 280 280 280 279 279 279 279 279 278 278 277 277 276 275 275 274 273 273 273 273 272 272 274 276 275 272 272 272 272 271 270 269 269 269 268 268 268 268
280 280 280 280 281 280 279 278 278 279 279 279 278 277 276 276 275 275 275 274 273 272 272 273 272 272 276 279 279 278 273 272 271 271 270 269 269 269 268 268 268 268
281 280 280 281 280 280 279 278 278 278 278 278 277 277 276 275 275 275 275 274 273 273 272 273 273 275 278 280 280 280 277 272 272 271 270 270 269 269 268 268 268 267
281 281 281 280 280 279 277 276 277 277 277 277 277 276 274 274 275 274 274 273 273 273 272 273 272 277 279 281 281 281 280 275 272 272 271 270 270 269 268 268 267 267
281 281 281 280 278 277 276 276 276 277 277 276 275 274 273 273 273 273 274 272 272 272 272 272 272 276 280 281 282 282 282 277 272 272 272 271 270 269 268 268 268 267
281 281 280 279 277 276 276 276 276 275 275 274 274 274 273 273 273 272 272 271 271 272 271 271 271 276 280 281 282 283 283 279 273 272 272 271 271 270 269 268 267 267
281 280 280 278 277 276 275 276 275 275 275 274 273 273 272 271 271 271 271 271 271 271 271 271 271 277 279 281 282 283 284 279 274 273 272 271 271 270 269 268 267 267
281 280 279 278 276 275 275 275 275 274 274 272 272 273 273 272 272 272 271 271 270 270 270 271 271 275 279 281 282 283 283 276 273 273 272 270 270 270 269 268 267 267
281 280 279 277 276 276 276 276 276 274 273 272 273 272 273 272 272 271 270 270 270 270 270 270 270 273 278 280 282 283 282 273 272 271 271 270 268 269 268 267 267 269
280 280 279 277 277 277 276 276 275 275 274 272 272 272 273 271 270 271 270 269 270 270 272 271 270 272 277 279 282 282 281 273 272 271 270 269 268 267 268 267 267 268
279 279 279 278 278 277 276 276 276 274 273 273 272 272 272 270 270 270 270 269 269 269 270 271 270 269 272 279 281 282 282 274 272 270 270 269 268 268 265 265 266 265

ECMWFNIL_sfc_thetae_105.txt.gz
Theta_e
286 286 286 285 285 286 284 284 284 284 284 283 283 283 283 282 282 282 282 282 282 282 281 281 282 282 282 282 282 281 281 280 280 281 281 280 280 280 279 279 279 279
285 285 286 285 285 285 284 285 284 284 283 283 283 282 282 282 282 282 282 282 282 281 281 281 281 281 281 281 281 280 280 280 279 280 280 279 279 279 278 278 278 278
285 285 285 284 284 284 284 284 284 284 283 283 282 282 282 282 281 282 282 281 281 280 280 281 281 280 280 280 281 280 280 279 279 279 279 278 278 278 278 278 278 278
284 284 284 284 284 284 283 283 283 283 282 282 282 282 282 282 281 281 281 281 280 280 280 280 280 280 280 279 280 279 279 279 278 278 278 277 277 277 277 277 277 277
284 284 284 284 284 284 283 283 282 282 282 282 282 282 281 281 281 280 280 280 280 279 279 279 279 279 278 278 278 278 278 277 277 278 277 277 277 277 277 277 276 276
284 284 284 284 284 283 283 283 283 282 282 281 282 282 281 281 280 280 280 279 279 279 279 278 278 278 278 278 278 278 277 277 277 277 277 276 276 276 276 276 276 275
283 283 283 283 283 283 283 283 282 282 282 282 281 281 280 280 280 280 279 279 279 279 278 278 277 277 277 277 277 276 276 276 276 276 276 276 276 275 275 276 276 275
283 283 283 283 283 282 282 282 282 282 281 281 281 281 280 280 280 279 279 279 279 278 278 277 277 277 277 277 276 276 275 275 275 275 275 275 275 275 275 275 275 275
283 282 282 282 282 282 282 282 282 281 281 281 280 280 280 280 279 279 279 279 278 278 277 277 277 276 276 276 276 276 275 275 275 275 275 274 274 274 274 274 274 274
282 282 282 282 282 282 282 281 281 281 281 281 280 279 279 279 279 279 278 278 278 277 277 277 276 276 275 276 276 275 275 275 275 274 275 275 274 274 274 274 274 273
282 281 281 281 282 282 281 281 281 280 280 280 280 279 279 279 279 278 278 278 277 277 276 276 276 275 275 275 275 276 275 275 274 274 274 274 274 274 274 274 273 273
281 281 281 281 282 281 281 281 280 280 280 280 280 279 279 279 278 278 278 277 277 277 277 276 276 275 275 275 275 275 275 275 274 274 273 274 274 274 274 274 273 273
281 281 281 281 281 281 281 281 280 280 280 280 280 279 279 278 278 277 278 277 277 277 276 276 275 275 275 275 274 274 274 274 274 274 274 273 273 274 273 273 273 273
281 281 281 281 281 281 281 281 280 280 280 280 280 279 279 278 277 277 277 277 276 276 276 276 275 275 274 274 274 274 274 274 274 274 273 273 273 273 273 273 273 273
282 281 281 281 281 281 281 281 280 280 280 280 280 279 279 278 278 278 277 276 276 276 276 276 275 274 274 274 274 274 274 274 274 274 273 273 273 273 273 273 273 273
282 281 281 281 281 281 281 281 280 280 280 280 280 279 279 278 278 278 277 276 275 275 275 274 274 274 275 277 277 275 275 274 274 274 273 273 273 272 272 272 272 272
282 281 281 281 281 281 281 281 280 280 280 280 280 279 278 278 278 277 277 276 275 275 274 274 274 274 277 280 280 279 275 275 274 274 274 273 273 272 272 272 272 272
282 282 281 281 281 281 281 280 280 280 280 280 279 278 278 278 277 277 276 276 275 275 274 274 274 276 279 281 281 281 278 275 274 273 273 273 273 272 272 272 271 271
283 282 281 281 281 281 281 280 280 280 279 279 278 279 278 277 277 277 276 276 275 275 274 275 274 278 280 282 282 282 281 276 274 274 273 273 273 272 272 272 271 271
282 282 282 281 281 281 280 280 280 279 279 279 278 278 277 277 277 277 277 276 275 275 274 274 274 277 281 282 283 283 282 278 274 273 273 273 272 272 271 272 271 271
282 282 282 281 281 280 280 280 279 279 279 279 278 278 277 277 277 277 276 275 275 275 275 274 274 278 281 282 283 283 283 281 273 273 273 273 273 272 272 271 271 271
283 282 282 281 280 279 279 279 279 279 279 278 278 277 277 277 276 276 275 274 274 274 274 273 274 279 281 282 283 284 284 281 274 274 273 273 272 272 272 272 271 271
283 282 281 281 280 279 279 279 279 279 279 278 277 277 276 276 275 275 275 274 273 273 273 273 273 277 281 282 283 284 283 280 275 275 274 273 273 273 272 271 271 271
283 282 282 281 280 279 279 280 280 279 279 277 277 276 276 275 275 274 274 274 273 272 273 273 273 275 280 281 282 284 283 279 276 276 275 274 273 272 272 272 271 271
283 282 282 281 280 280 280 280 279 279 278 276 277 277 276 275 274 274 273 273 273 273 273 273 273 274 279 281 282 283 283 279 276 275 274 274 273 272 272 270 270 271
283 282 282 281 281 280 280 280 279 277 276 275 275 276 275 275 274 274 273 272 271 271 272 273 272 272 275 280 281 282 284 280 275 275 273 273 273 272 270 270 270 270

ECMWFNIL_sfc_thetae_111.txt.gz
Theta_e
296 296 295 294 295 296 295 295 295 295 294 294 293 293 293 293 293 293 293 293 294 293 293 293 293 293 294 294 294 293 293 292 291 292 292 291 291 290 290 289 289 287
294 294 294 295 295 294 295 296 295 295 295 294 294 294 293 292 292 293 292 292 292 292 292 292 292 292 292 292 293 291 290 290 290 292 290 290 289 289 288 288 287 287
293 293 293 293 294 294 294 295 295 295 295 295 294 293 292 292 291 292 292 292 291 291 291 292 291 291 291 291 291 290 289 289 289 289 289 288 288 287 287 287 286 287
292 292 292 293 294 294 295 294 295 294 294 294 293 293 292 292 291 291 291 290 290 290 290 290 290 290 290 290 290 289 289 288 288 288 287 287 287 286 286 286 286 285
292 292 292 292 293 294 294 294 294 294 293 293 292 291 290 290 290 289 289 290 290 289 289 289 289 289 289 289 289 288 288 287 287 287 286 285 286 286 285 285 284 284
292 291 291 292 293 293 293 293 293 293 293 292 291 290 290 290 289 289 289 289 289 288 288 288 288 288 288 288 288 287 286 286 286 286 285 284 284 285 285 284 283 283
291 291 290 291 292 293 292 293 293 293 292 292 290 289 289 289 289 289 288 288 288 288 288 287 287 287 287 287 286 285 285 284 284 284 283 283 283 282 283 283 282 282
291 291 291 291 291 291 291 292 292 292 292 290 289 289 289 289 288 289 288 288 288 287 287 287 287 286 286 286 285 284 283 284 283 283 282 282 281 281 281 283 282 281
291 290 290 290 290 290 290 291 291 291 291 289 289 289 289 289 288 288 288 287 287 287 287 286 286 285 285 285 284 283 282 283 283 282 282 281 280 280 280 281 281 280
291 290 290 289 289 289 289 290 290 290 290 289 289 288 288 289 288 288 287 287 286 286 286 285 285 284 284 284 284 282 282 282 281 281 281 281 281 280 280 280 280 280
291 290 289 289 289 289 289 290 289 289 289 289 288 288 288 288 287 287 287 286 286 285 285 285 284 283 283 283 283 282 282 281 281 281 281 281 281 280 281 280 280 280
290 289 288 288 288 288 289 289 289 289 288 288 288 287 287 287 286 286 286 285 285 285 285 284 284 283 283 282 282 282 281 281 280 280 281 281 281 280 280 280 280 280
289 288 288 288 288 288 289 289 289 288 288 287 287 287 286 286 286 285 285 285 285 284 284 283 283 283 283 282 281 281 281 280 280 280 280 281 280 280 280 280 280 280
289 288 288 288 288 288 288 288 288 287 287 287 287 286 285 285 285 285 284 284 284 283 283 283 282 282 282 282 281 280 280 280 280 280 280 280 279 279 280 280 280 280
289 288 288 288 288 288 287 288 287 287 287 287 286 286 286 285 285 284 284 283 283 282 282 282 282 281 281 281 280 279 280 280 280 279 279 279 279 279 279 279 280 280
288 288 288 288 288 287 287 287 286 286 286 285 285 285 285 284 284 283 283 282 282 282 281 281 281 281 282 283 283 280 280 280 280 279 279 279 279 279 278 279 279 279
288 288 288 287 287 287 287 286 286 286 285 285 285 284 284 284 283 282 282 282 281 281 281 280 280 280 283 285 285 284 281 280 279 279 279 279 279 279 278 278 278 279
289 288 287 287 287 286 286 286 286 285 285 285 284 284 284 283 282 282 282 282 281 281 280 280 279 282 284 285 285 285 284 280 280 279 279 279 279 279 279 279 278 278
290 288 287 287 287 286 286 286 285 285 284 284 284 284 283 282 282 282 281 281 281 280 280 280 279 284 285 285 285 285 285 282 280 280 279 279 279 279 279 279 278 278
290 289 287 287 287 286 286 285 285 285 285 285 284 284 283 282 282 281 281 280 280 280 280 280 279 283 285 285 286 286 285 283 280 280 280 279 279 279 279 279 278 278
290 289 288 287 286 286 286 285 285 285 285 284 284 283 283 282 281 281 281 280 280 279 279 279 278 283 285 285 285 286 285 283 280 280 280 279 279 279 279 279 279 278
289 289 288 287 286 286 285 285 285 284 284 284 284 283 284 284 283 282 281 280 280 279 279 278 278 283 284 285 286 286 286 282 280 280 279 279 279 279 279 279 278 278
290 288 288 287 286 285 285 285 284 284 284 284 283 283 282 282 282 281 281 280 280 279 278 278 278 282 284 285 285 286 285 282 280 279 279 278 278 279 278 278 278 278
290 288 287 286 285 285 285 285 285 284 284 284 283 282 282 282 281 281 281 280 279 278 278 278 278 280 284 285 285 286 285 283 281 279 278 278 278 278 278 277 278 279
289 288 287 286 285 285 285 284 284 284 284 284 283 283 282 282 281 281 280 280 280 279 280 279 279 280 284 285 285 286 285 283 282 280 279 278 277 277 277 277 277 278
288 287 286 286 285 285 285 285 285 284 284 283 283 283 282 282 281 281 280 280 279 279 279 279 279 279 282 284 285 285 286 284 282 280 279 278 278 278 277 277 277 277

ECMWFNIL_sfc_thetae_114.txt.gz
Theta_e
298 298 298 297 298 298 296 296 295 294 293 292 291 291 291 291 292 292 292 291 290 290 290 290 290 290 290 290 289 289 288 287 287 287 286 285 284 284 284 282 281 281
297 296 296 296 296 296 296 296 295 294 293 292 292 292 292 292 292 292 291 290 289 289 289 289 289 289 289 289 288 287 286 286 286 287 285 284 283 283 282 281 281 280
296 295 295 295 295 295 295 296 295 294 294 293 292 292 291 292 291 290 290 289 288 288 288 288 288 288 287 287 286 285 285 285 284 283 284 283 282 282 281 281 280 280
295 295 295 295 295 295 295 295 295 294 293 292 292 291 291 291 290 289 288 288 287 287 286 286 286 286 285 285 285 284 284 284 283 283 282 282 282 282 281 281 280 280
294 294 295 295 295 295 295 295 294 294 293 292 291 290 289 289 289 287 286 286 286 285 285 285 285 285 284 284 284 283 283 283 282 282 282 281 281 281 281 280 279 279
294 294 294 294 295 294 294 294 294 294 293 291 290 289 288 288 287 286 285 285 285 285 284 284 284 284 284 283 283 283 282 282 282 281 281 281 280 281 281 280 279 278
294 292 292 294 294 294 294 294 294 293 292 291 289 288 287 286 286 285 285 285 284 284 284 284 284 283 283 283 282 282 281 281 281 281 280 279 280 279 279 279 279 278
294 292 292 292 292 292 292 292 292 292 290 288 287 286 286 286 285 285 284 284 284 283 283 283 283 283 282 282 281 281 281 282 280 280 279 278 278 278 278 279 278 278
293 291 290 290 290 291 290 290 291 289 288 288 286 285 285 285 284 284 284 283 283 283 283 282 282 282 282 281 281 281 280 280 280 279 279 278 278 277 277 278 277 277
292 291 289 289 289 290 290 290 290 289 288 288 286 285 285 284 284 284 283 283 283 282 282 282 282 281 281 280 281 280 280 279 278 278 278 278 278 278 278 278 277 277
291 291 290 289 289 290 290 290 290 289 288 287 286 285 284 283 283 283 283 283 283 282 282 281 281 281 280 280 280 280 280 279 279 278 278 278 278 279 280 278 277 277
291 290 290 290 290 290 290 290 289 288 287 287 286 285 284 283 284 283 283 282 282 282 282 281 281 281 281 280 280 280 279 279 278 278 278 278 278 278 279 278 277 277
291 291 290 290 289 290 290 289 289 288 287 287 286 285 284 283 283 283 282 282 282 281 281 281 281 280 280 280 280 280 279 278 278 278 278 278 278 278 278 278 278 278
291 291 290 290 289 289 289 289 288 288 287 287 286 285 284 283 283 282 281 281 281 281 281 281 280 280 280 280 280 280 279 279 279 278 278 277 277 277 278 278 278 278
290 290 289 289 288 288 287 288 288 287 287 286 286 285 285 283 283 282 281 281 281 281 281 281 281 281 280 280 280 279 279 279 278 278 278 278 278 278 278 278 278 278
290 289 288 288 288 288 287 287 287 287 286 286 285 285 284 283 282 282 281 281 281 281 281 281 281 281 282 284 284 280 279 279 279 279 279 278 278 278 277 278 278 278
289 288 288 287 288 288 287 287 286 286 285 285 285 284 283 283 283 282 281 281 281 281 280 281 281 281 284 287 286 285 280 279 278 278 279 278 278 277 277 277 277 278
289 288 287 287 287 287 287 287 286 286 285 285 285 284 283 283 282 282 282 281 281 280 280 280 280 283 287 288 287 286 284 280 279 279 279 278 278 278 277 277 277 277
288 287 287 287 287 287 287 286 286 286 285 285 285 284 284 283 282 282 282 281 281 280 280 280 279 285 288 289 288 287 285 282 280 279 279 278 278 278 278 277 277 277
289 287 287 286 286 286 286 286 286 285 286 285 285 285 284 283 282 282 282 281 281 280 280 279 278 284 289 289 288 288 286 283 279 279 279 279 278 278 278 278 277 277
289 288 287 286 286 285 285 286 286 286 285 285 285 284 284 283 283 282 282 282 281 281 280 279 279 285 288 289 288 288 287 284 279 279 279 278 278 278 278 278 278 278
289 288 287 286 286 285 285 285 286 285 285 285 285 284 284 284 283 283 282 282 281 281 280 279 279 286 288 288 288 288 287 281 279 279 279 278 278 278 278 278 278 278
289 288 287 286 286 285 285 286 285 285 285 285 284 284 284 283 283 282 282 282 281 280 280 279 279 284 287 287 288 288 285 279 279 279 279 278 278 278 278 278 278 278
288 288 288 287 286 286 285 285 286 286 285 285 284 284 283 283 283 282 282 282 281 280 280 280 279 282 287 288 288 288 283 279 279 279 278 278 278 278 278 278 278 280
288 288 288 287 287 286 286 285 285 285 285 285 284 284 283 283 283 282 282 281 281 281 281 280 279 281 286 287 287 287 283 280 279 278 278 278 277 277 278 278 277 279
287 287 287 287 287 286 285 285 284 284 284 284 284 284 283 283 282 282 281 281 281 280 280 280 279 279 284 286 287 287 285 281 280 278 278 278 278 278 277 277 277 276